Regional Weather Roundup
Issued by NWS

Home | Current Version | Previous Version | Text Only | Print | Product List | Glossary On
Versions: 1 2 3 4 5 6 7 8 9 10 11 12 13 14 15 16 17 18 19 20 21 22 23 24 25 26 27 28 29 30 31 32 33 34 35 36 37 38 39 40 41 42 43 44 45 46 47 48 49 50
000
ASUS44 KOUN 221000
RWROK

WEATHER ROUNDUP FOR OKLAHOMA
NATIONAL WEATHER SERVICE NORMAN OK
400 AM CST MON DEC 22 2014

NOTE: "FAIR" INDICATES FEW OR NO CLOUDS BELOW 12,000 FEET WITH NO
      SIGNIFICANT WEATHER AND/OR OBSTRUCTIONS TO VISIBILITY.

OKZ001>007-009>012-014-015-017-221100-
NORTHWEST OKLAHOMA AND THE PANHANDLE

CITY           SKY/WX    TMP DP  RH WIND       PRES   REMARKS
GAGE           CLOUDY    43  40  89 W10       29.56R
$$

OKZ016-021>023-033>039-044-045-221100-
SOUTHWEST OKLAHOMA

CITY           SKY/WX    TMP DP  RH WIND       PRES   REMARKS
LAWTON/REGL    PTCLDY    44  42  93 SE8       29.52F FOG
FREDERICK      PTCLDY    40  39  97 E6        29.48F FOG
CLINTON        FOG       39  38  96 NW8       29.55R VSB 1/4 WCI  33
HOBART         CLEAR     41  41 100 CALM      29.52F FOG
$$

OKZ018>020-024>031-221100-
CENTRAL OKLAHOMA

CITY           SKY/WX    TMP DP  RH WIND       PRES   REMARKS
OKLAHOMA CITY  CLOUDY    49  45  86 S7        29.54F
OKC/WILEY POST CLOUDY    49  46  90 S12       29.55F FOG
STILLWATER     CLOUDY    48  45  89 S12       29.56F FOG
GUTHRIE        CLOUDY    49  46  90 S6        29.55F
$$

OKZ008-013-054>072-221100-
NORTHEAST OKLAHOMA

CITY           SKY/WX    TMP DP  RH WIND       PRES   REMARKS
TULSA          DRIZZLE   46  45  96 SE12      29.62F FOG
TULSA/JONES    CLOUDY    47  45  93 S8        29.62F FOG
PONCA CITY     CLOUDY    47  45  93 SE10      29.57F FOG
BARTLESVILLE   CLOUDY    45  44  97 SE7       29.63F FOG
MUSKOGEE       CLOUDY    47  43  86 SE14      29.65F
$$

OKZ032-040>043-046>053-073>077-221100-
SOUTH CENTRAL/SOUTHEAST OKLAHOMA

CITY           SKY/WX    TMP DP  RH WIND       PRES   REMARKS
MCALESTER      CLOUDY    50  46  86 S9        29.63F
$$



USA.gov is the U.S. government's official web portal to all federal, state and local government web resources and services.